Regional Weather Roundup
Issued by NWS

Home | Current Version | Previous Version | Text Only | Print | Product List | Glossary Off
Versions: 1 2 3 4 5 6 7 8 9 10 11 12 13 14 15 16 17 18 19 20 21 22 23 24 25 26 27 28 29 30 31 32 33 34 35 36 37 38 39 40 41 42 43 44 45 46 47 48 49 50

000
ASUS45 KABQ 291710
RWRNM
WEATHER ROUNDUP FOR NEW MEXICO
NATIONAL WEATHER SERVICE ALBUQUERQUE NM
1100 AM MDT MON SEP 29 2014

NOTE: "FAIR" MEANS FEW OR NO CLOUDS BELOW 12,000 FEET AGL WITH NO
       SIGNIFICANT WEATHER OR OBSTRUCTIONS TO VISION.

      THIS PRODUCT IS RELEASED AS TWO VERSIONS.  ONE VERSION NEAR
      THE TOP OF THE HOUR CONTAINING PRELIMINARY DATA FROM ALBUQUERQUE
      AND OTHER STATIONS.  A FINAL VERSION WITH ADDITIONAL DATA IS
      ISSUED ABOUT 10 MINUTES AFTER THE HOUR.

NMZ501-503-504-510>518-291800-
NORTHWEST PLATEAU/NORTHCENTRAL MOUNTAINS

CITY           SKY/WX    TMP DP  RH WIND       PRES   REMARKS
FARMINGTON     CLOUDY    56  51  84 E6        30.03F
LOS ALAMOS     MOSUNNY   62  48  61 S13G24    30.15F
SANTA FE       MOSUNNY   68  52  56 SE16G23   30.11F
TAOS           MOSUNNY   66  46  48 S16       30.14F
ANGEL FIRE     FAIR      60  43  53 S9        30.21F

$$
NMZ402-403-502-505>509-291800-
WESTCENTRAL MOUNTAINS/SOUTHWEST MOUNTAINS

CITY           SKY/WX    TMP DP  RH WIND       PRES   REMARKS
GALLUP         LGT RAIN  52  49  89 S12       30.10F
GRANTS         MOSUNNY   64  37  36 SW17G23   30.12F
SILVER CITY    MOSUNNY   72  57  60 S16       30.13F

$$
NMZ407-409-411-412-291800-
SOUTHERN DESERTS

CITY           SKY/WX    TMP DP  RH WIND       PRES   REMARKS
LORDSBURG      FAIR      73  59  60 MISG      30.04F
DEMING         SUNNY     75  57  53 E3        30.06S
LAS CRUCES     SUNNY     77  58  52 S8        30.08F
HOLLOMAN AFB     N/A     78  58  51 S15G21    30.04
ALAMOGORDO     MOSUNNY   77  57  50 S15       30.06F
T OR C         MOSUNNY   74  57  55 S14G21    30.06F

$$
NMZ519>523-291800-
CENTRAL VALLEYS/CENTRAL HIGHLANDS

CITY           SKY/WX    TMP DP  RH WIND       PRES   REMARKS
ALBUQUERQUE    MOSUNNY   71  52  50 S15       30.07F
DOUBLE EAGLE   MOSUNNY   70  50  49 S17       30.10F
MORIARTY ARPT  FAIR      68  53  58 S14       30.14F
CLINES CORNERS MOSUNNY   68  49  50 S21G26    30.17F
BELEN          FAIR      73  53  48 S14G22    30.07F
SOCORRO        FAIR      74  56  53 S16       30.07F

$$
NMZ524>526-539-540-291800-
SOUTHCENTRAL MOUNTAINS

CITY           SKY/WX    TMP DP  RH WIND       PRES   REMARKS
RUIDOSO        NOT AVBL

$$
NMZ527>531-291800-
NORTHEAST HIGHLANDS/NORTHEAST PLAINS

CITY           SKY/WX    TMP DP  RH WIND       PRES   REMARKS
LAS VEGAS      MOSUNNY   63  53  70 S17       30.17F
RATON          PTSUNNY   70  52  52 S18G28    30.09F
CLAYTON        CLOUDY    68  54  60 S18G26    30.09F

$$
NMZ532>537-291800-
EASTCENTRAL PLAINS

CITY           SKY/WX    TMP DP  RH WIND       PRES   REMARKS
TUCUMCARI      PTSUNNY   75  56  51 S10       30.07F
CANNON AFB     SUNNY     73  56  54 S16       30.11F
CLOVIS AIRPORT   N/A     72  57  60 S20       30.14F

$$
NMZ028-029-538-291800-
SOUTHEAST PLAINS

CITY           SKY/WX    TMP DP  RH WIND       PRES   REMARKS
ROSWELL        CLOUDY    71  60  68 SE14      30.07F
CARLSBAD       SUNNY     72  60  66 SE14      30.06F
HOBBS          SUNNY     73  55  53 SE16      30.10F


$$


USA.gov is the U.S. government's official web portal to all federal, state and local government web resources and services.